EHI
5 3 2 4 5 2 0 0 0 0 0 0 0 0 1 1 1 2 3 3 3 3 3 4 6 6 6 6 6 7 7 6 4 3 3 3 3 3 4 5 5 4 3 3 3 3 3 3 3
2 2 4 6 6 2 0 0 0 0 0 0 0 1 2 2 2 3 3 3 3 3 3 4 6 7 6 6 6 7 7 6 4 3 3 3 3 3 3 4 5 4 3 3 4 3 3 3 3
1 3 5 8 6 2 0 0 0 0 0 0 0 1 2 3 3 3 4 3 3 3 3 4 6 6 6 6 6 6 6 6 4 3 3 3 3 3 3 3 4 3 3 4 5 4 3 3 3
3 4 5 6 4 1 0 1 1 0 0 0 0 1 3 3 3 4 4 4 3 3 3 4 5 5 5 6 6 6 6 6 5 4 3 3 3 3 3 3 3 3 4 5 5 4 3 3 3
4 5 5 3 1 0 1 2 1 0 0 0 1 2 3 3 3 3 4 3 3 3 3 4 4 4 4 6 6 7 7 7 6 4 4 4 4 3 3 3 4 3 3 4 5 4 3 3 3
2 3 3 1 0 0 1 1 1 1 0 0 2 3 3 3 3 3 3 3 3 3 3 4 5 4 4 5 6 6 7 7 6 5 6 6 5 5 4 4 4 4 3 3 4 3 3 3 3
1 1 1 0 0 0 0 1 1 2 1 1 2 3 3 3 3 3 3 3 3 3 3 4 4 4 4 5 5 6 7 8 7 7 8 8 7 7 6 6 6 6 5 4 4 3 4 5 5
1 0 0 0 0 0 1 2 3 3 3 3 3 3 3 3 3 3 4 3 3 3 3 3 3 3 3 4 5 6 8 9 8 8 9 8 7 7 8 8 8 8 8 7 5 5 7 8 10
1 0 0 0 0 0 1 2 3 4 5 4 4 3 3 3 3 4 5 4 3 3 3 3 3 3 3 3 4 6 8 8 7 7 7 6 5 6 7 9 11 12 11 9 9 10 11 11 11
1 0 0 0 0 0 0 1 2 4 5 5 5 4 3 3 3 4 5 5 4 3 3 3 3 3 3 3 3 4 5 5 5 4 4 4 4 4 5 7 10 11 10 9 10 11 11 8 6
0 1 1 2 1 0 0 0 2 4 5 5 6 5 4 3 3 3 4 4 4 3 3 3 3 3 3 3 3 3 3 3 3 3 3 3 3 3 3 4 6 7 6 6 6 7 6 4 2
2 2 3 3 2 0 0 0 1 3 5 6 6 5 4 3 3 3 4 4 4 3 3 4 3 3 3 3 3 3 3 3 3 3 3 3 3 3 3 3 3 3 3 3 3 3 3 2 1
3 3 3 2 1 0 0 0 1 4 7 7 6 5 5 4 3 3 4 5 4 3 4 4 4 3 3 3 3 3 3 3 3 3 3 3 3 3 4 3 3 3 3 3 2 2 1 1 0
2 2 1 1 0 0 0 0 2 6 10 9 7 7 6 6 5 5 6 5 4 4 4 4 4 3 3 3 3 3 3 3 3 3 3 3 3 3 3 3 3 3 3 2 1 1 0 0 1
2 2 1 0 0 1 1 1 3 8 12 10 8 7 6 6 7 8 8 6 4 4 4 4 4 3 3 3 3 3 3 3 3 3 3 3 2 2 2 2 3 3 3 2 1 0 1 1 2
3 3 2 2 2 1 0 1 3 8 11 10 8 7 6 6 9 11 10 7 4 4 4 4 4 4 4 4 3 3 3 3 3 3 3 3 3 2 1 2 3 3 3 2 1 1 2 3 3
3 3 3 3 3 2 1 1 3 6 9 10 10 8 7 7 10 13 12 8 5 5 4 4 6 7 6 5 4 3 3 3 3 3 3 4 5 5 4 3 3 3 3 2 2 3 3 3 3
3 3 3 3 3 3 2 2 3 4 7 10 11 10 9 9 12 14 13 10 8 8 7 8 10 10 8 7 5 3 2 3 4 4 4 5 8 8 6 4 2 2 2 3 3 3 3 3 2
3 3 3 3 2 2 3 3 3 3 5 8 10 11 11 11 13 14 14 13 12 12 12 14 14 12 10 8 6 3 3 4 5 5 5 5 7 7 4 3 2 2 3 3 3 3 3 3 3
3 3 3 2 1 1 2 3 3 4 4 6 9 10 11 13 14 14 14 15 16 16 17 17 16 14 12 9 7 5 6 7 7 5 4 3 3 3 2 2 3 3 3 3 3 3 3 3 3
3 3 3 3 1 0 1 1 3 4 4 4 6 8 10 13 15 14 14 17 19 19 19 19 18 16 14 13 10 9 10 10 7 4 2 1 1 2 2 2 3 3 3 3 3 3 3 3 3
3 3 4 4 2 0 0 1 2 3 4 5 6 8 10 12 15 16 16 19 21 22 22 22 21 18 17 17 14 11 11 10 6 3 1 0 1 3 3 3 3 3 3 3 3 3 3 3 3
3 3 3 3 2 0 0 0 1 1 4 7 9 11 13 14 15 16 18 20 23 25 26 26 24 21 20 20 17 12 9 7 4 3 2 2 2 3 3 3 3 3 3 3 3 3 3 3 3
1 2 3 3 2 0 0 0 0 1 3 7 11 15 18 20 19 19 19 21 24 27 29 29 27 24 22 20 17 12 8 5 3 2 3 3 3 3 3 3 4 3 3 3 4 4 3 3 3
0 1 2 2 1 1 0 0 0 1 2 6 10 16 22 25 24 24 24 26 28 30 33 35 33 27 22 19 16 12 8 5 4 3 3 3 3 3 3 4 4 4 3 4 5 5 4 3 3
0 0 1 1 1 1 0 0 1 2 3 5 8 15 23 27 27 28 30 32 33 34 37 40 37 31 23 17 14 10 8 6 6 5 4 3 3 3 3 3 4 4 4 6 7 6 4 3 4
0 0 0 0 0 0 0 0 1 3 4 5 6 12 20 24 26 30 33 34 35 38 41 40 37 32 24 17 13 10 8 7 7 6 4 3 3 3 4 3 3 4 6 8 9 7 5 4 5
0 0 0 0 0 0 0 0 0 2 5 4 4 8 13 17 23 29 31 32 35 39 41 39 36 32 26 21 17 13 10 10 10 8 7 5 5 4 4 4 5 6 7 9 9 9 8 7 6
1 1 1 1 0 0 0 0 0 1 3 3 4 8 11 14 20 25 27 28 33 38 39 38 36 33 28 24 21 16 13 13 13 11 10 9 8 7 6 7 8 8 10 11 11 11 11 10 9
0 1 2 2 1 0 0 0 0 0 1 2 6 10 13 14 18 23 25 26 31 37 39 37 35 34 29 25 21 17 14 15 15 13 12 12 11 9 8 9 9 10 12 13 13 13 13 13 12
Wind_Speed
8 6 3 1 1 2 1 1 4 6 6 6 10 10 9 7 5 5 2 9 10 8 6 8 11 12 12 12 12 12 12 12 12 12 12 12 12 12 12 12 11 11 10 10 9 8 8 7 7
5 4 2 0 2 2 1 2 7 8 9 9 10 10 9 7 7 8 5 9 10 8 6 8 11 12 12 12 11 12 12 12 12 12 11 11 11 11 11 11 10 10 10 9 9 8 7 6 6
5 3 1 1 1 2 2 4 8 10 9 7 7 7 6 6 6 6 7 11 9 7 6 7 12 12 12 11 11 11 11 11 11 11 11 11 10 10 10 10 10 9 9 9 8 7 6 5 5
2 1 1 2 2 1 4 5 9 10 8 8 8 7 5 5 5 8 12 12 10 8 6 8 12 12 11 11 11 11 11 11 11 11 10 10 10 10 10 10 9 9 9 8 7 6 5 4 3
1 1 3 2 1 2 4 6 8 9 6 8 9 8 5 4 10 12 12 11 11 8 6 7 12 11 11 11 10 10 10 10 10 10 10 10 10 10 10 9 9 8 7 6 5 4 4 3 2
2 2 3 2 1 4 4 7 11 12 11 10 9 8 4 6 10 9 10 10 9 9 7 6 11 12 11 10 10 10 10 10 10 10 10 10 10 9 9 8 8 7 6 5 4 4 3 2 1
2 2 1 0 2 4 4 6 9 9 9 6 7 6 4 5 7 9 10 9 8 8 7 5 5 8 10 10 10 10 10 10 10 10 9 9 9 8 8 7 6 6 5 5 4 3 3 2 1
3 2 1 0 3 3 4 6 8 9 8 8 6 7 5 6 7 9 9 8 7 7 6 5 4 4 4 5 9 9 9 9 9 9 8 8 9 8 7 6 5 6 5 5 4 3 3 2 2
3 2 2 3 4 4 6 9 7 7 10 7 5 6 8 11 9 9 8 6 6 7 5 5 5 4 4 4 7 7 8 8 8 6 7 6 3 3 3 5 6 6 5 5 4 3 3 3 3
4 3 5 4 4 6 8 10 7 7 10 9 9 10 10 10 9 8 8 7 7 7 6 4 5 5 4 4 4 2 3 3 2 2 2 2 2 2 3 4 6 6 5 4 4 4 3 2 1
4 5 3 2 5 8 9 7 6 9 7 9 13 12 10 9 8 7 6 7 7 7 7 6 5 5 5 3 3 2 1 2 2 3 3 2 1 1 2 1 2 2 3 2 2 2 1 1 1
3 3 5 4 5 8 8 6 7 7 8 11 13 12 10 9 8 7 7 7 6 7 7 6 6 5 4 4 3 3 2 2 2 3 3 3 1 1 2 2 2 1 1 1 1 1 2 2 1
1 1 3 6 7 7 9 8 8 9 12 13 13 12 11 9 7 6 7 7 7 6 6 6 6 5 4 3 3 3 3 3 3 2 3 4 3 2 2 2 1 2 1 1 1 1 1 1 1
1 2 3 5 6 7 11 8 7 9 13 13 13 11 10 10 8 7 7 6 6 6 6 6 6 5 4 3 3 3 3 3 2 2 3 3 3 2 2 2 1 1 1 2 1 1 1 1 0
1 3 1 2 4 5 9 6 7 12 12 12 12 11 11 9 9 9 9 8 7 7 7 6 6 5 5 4 3 3 3 3 3 2 2 3 3 3 2 2 1 1 1 1 1 0 0 0 0
3 3 0 2 4 5 8 5 7 11 12 11 11 11 10 8 9 9 9 7 7 7 7 6 6 5 4 4 3 2 3 3 2 2 2 2 3 3 2 1 1 1 0 1 1 1 1 1 0
4 1 2 2 2 4 5 5 8 10 12 11 10 10 10 9 8 8 10 9 8 8 7 6 5 5 4 4 2 2 2 2 2 2 2 1 2 2 2 1 1 1 1 0 0 1 1 0 0
3 2 2 2 2 3 4 4 8 10 11 11 10 10 10 11 10 10 9 9 8 7 7 6 5 5 4 3 2 2 2 1 1 2 2 2 1 2 2 1 1 1 1 0 0 1 0 1 1
4 2 2 3 2 3 3 4 8 9 10 10 9 10 10 10 9 9 10 9 8 7 6 6 6 5 3 2 2 2 1 1 1 1 2 2 2 2 2 2 1 1 1 1 1 1 1 0 0
3 2 3 2 2 3 4 3 6 9 12 12 12 11 11 9 9 9 9 9 9 8 7 7 6 5 4 3 2 2 2 1 1 1 1 2 2 2 2 2 1 1 1 0 1 1 1 1 0
2 3 3 2 0 2 4 2 3 4 5 7 9 10 11 13 13 12 10 9 9 9 9 8 7 6 5 4 2 2 2 1 1 0 1 1 2 2 2 2 2 1 2 1 0 1 1 0 1
2 4 4 4 4 1 2 1 5 5 4 8 9 9 10 11 11 11 11 10 11 10 8 7 7 6 5 4 4 4 3 2 2 2 2 1 2 2 2 2 2 2 1 1 1 1 1 2 0
4 3 2 2 4 2 2 2 6 2 5 8 10 10 10 10 12 12 12 12 10 10 8 7 7 6 5 5 5 4 3 2 1 1 2 1 1 1 2 2 2 2 1 2 1 1 1 1 1
4 5 6 6 5 2 2 2 5 4 8 7 9 10 10 10 11 10 9 9 8 8 8 7 7 6 6 6 5 5 5 4 3 2 2 2 1 1 2 2 2 2 2 2 2 1 1 1 1
4 6 5 6 5 3 2 1 7 6 6 7 9 10 10 11 11 10 10 10 9 9 9 8 8 7 6 6 6 6 6 5 5 4 3 3 2 2 3 2 2 2 2 2 2 1 1 1 2
2 7 7 4 3 3 2 3 7 4 3 4 5 7 8 9 10 11 11 11 10 10 9 8 8 7 6 6 6 5 5 4 3 4 3 3 3 3 3 3 2 2 2 2 2 1 2 1 1
2 2 6 7 1 1 3 4 6 3 3 2 4 6 7 8 9 9 9 9 10 10 9 9 8 7 6 6 5 4 4 4 4 3 3 2 2 2 2 3 3 3 2 2 2 1 1 1 1
6 6 5 5 3 1 3 2 3 2 2 1 2 3 4 5 7 8 8 8 8 9 8 8 8 8 7 6 6 5 4 4 4 3 3 3 3 2 3 2 3 2 2 2 2 1 1 1 1
1 3 5 4 5 5 1 5 5 5 4 2 2 2 3 5 6 7 6 7 7 7 7 7 7 6 6 6 5 5 4 4 4 3 3 3 3 3 3 3 3 2 3 2 2 2 2 2 2
4 4 6 5 3 4 4 6 4 4 3 3 3 2 3 5 5 5 4 5 6 6 6 6 6 6 6 6 5 5 4 4 4 4 4 4 3 3 3 3 3 3 3 2 2 3 2 2 2
Wind_Direction
167 164 170 204 31 43 40 102 109 83 64 64 76 82 79 63 89 125 142 128 128 129 128 124 119 118 116 114 114 115 117 119 119 120 121 121 122 121 121 123 123 123 124 122 122 123 124 126 129
165 170 188 10 61 60 14 99 97 99 120 113 86 83 80 74 85 109 122 132 133 134 133 128 125 121 119 118 117 116 116 119 121 120 122 124 126 125 124 127 128 128 126 125 124 124 126 130 134
179 185 185 42 71 143 121 98 102 104 104 92 85 64 70 96 104 122 142 140 133 130 130 133 128 124 124 124 120 118 117 120 123 124 126 126 127 127 127 128 129 129 127 126 127 128 132 136 139
175 123 31 41 49 124 119 109 107 100 79 73 91 75 59 77 115 133 138 139 134 133 138 138 132 128 126 127 126 124 123 124 126 127 127 126 127 126 126 126 129 131 130 131 132 135 139 140 139
88 75 35 29 52 80 99 106 111 95 82 84 91 92 77 72 114 128 137 142 138 140 146 144 138 134 131 130 131 131 131 131 130 129 129 129 130 131 129 130 132 134 135 139 140 141 144 145 149
34 41 51 34 70 87 92 102 98 97 103 100 100 101 107 130 130 138 138 141 144 145 146 145 144 140 138 136 136 138 137 137 136 136 135 136 137 135 134 136 139 142 145 148 150 151 159 175 197
109 52 37 95 94 88 104 106 108 117 116 112 118 101 120 143 144 139 139 138 140 141 142 143 147 143 143 140 138 141 142 140 139 140 142 144 146 147 145 147 150 151 159 166 169 174 187 209 247
146 100 319 232 121 111 118 96 106 114 109 123 118 122 149 166 149 131 133 134 138 140 142 145 143 144 145 143 145 148 148 149 148 148 150 150 152 154 157 161 166 167 174 181 187 195 212 237 266
137 88 241 210 149 136 123 104 96 92 106 104 94 115 142 145 136 125 124 128 143 147 152 149 150 151 150 152 155 155 154 156 156 157 160 155 150 157 168 185 187 184 189 195 204 220 238 257 278
148 165 222 205 157 132 122 117 118 102 100 99 101 107 124 132 132 135 141 147 152 156 161 160 158 161 164 160 147 154 157 151 152 153 157 154 163 190 194 196 196 199 202 208 220 236 253 274 301
177 186 184 156 137 124 117 113 108 114 113 135 135 137 136 133 133 141 146 150 156 157 156 159 160 160 162 158 154 154 150 151 165 168 178 173 171 187 203 201 210 213 212 235 252 267 275 274 275
197 196 154 144 127 121 123 118 112 121 142 145 141 141 138 137 143 151 152 150 142 143 154 155 152 151 155 150 155 157 162 168 175 183 177 162 166 184 194 197 201 199 205 242 268 289 291 280 258
160 160 131 140 127 126 118 121 118 123 135 137 138 140 145 150 153 157 150 145 141 144 150 153 148 151 152 142 155 153 166 170 175 170 171 164 168 179 180 188 184 196 199 207 235 261 275 283 271
230 150 141 138 123 126 121 125 112 137 141 142 147 151 156 158 159 148 145 148 149 149 150 151 147 152 149 146 151 156 163 165 165 165 172 164 164 168 164 164 173 197 205 207 214 241 241 262 230
49 86 77 156 134 135 116 109 140 153 147 149 157 160 164 166 161 160 163 159 156 152 149 152 152 149 148 151 157 153 161 157 160 167 171 169 161 163 158 149 164 208 201 171 177 208 158 190 101
36 60 39 238 144 151 116 151 176 160 152 158 165 167 169 173 170 167 164 158 154 149 151 160 152 148 148 148 145 142 151 150 155 159 160 162 156 154 144 149 176 196 141 124 146 135 93 57 61
22 0 287 287 192 150 128 166 186 173 162 166 172 170 170 171 174 171 166 163 160 156 155 158 148 151 153 150 141 140 144 145 150 147 149 158 158 152 144 152 159 132 109 96 169 71 114 138 259
248 257 279 277 243 148 143 177 179 179 172 173 173 173 174 177 181 174 168 165 162 159 155 154 149 153 149 137 117 98 94 115 134 145 160 160 161 147 131 133 136 126 116 99 65 83 23 175 210
216 230 259 253 208 138 156 174 188 184 183 181 179 179 180 184 181 171 169 165 160 159 158 159 156 161 148 133 132 130 146 159 143 160 167 162 164 152 137 134 134 127 138 173 146 133 67 355 98
224 239 273 276 203 152 158 198 205 192 194 189 184 185 180 175 170 174 170 168 168 169 167 165 168 168 166 162 164 166 161 174 169 166 169 173 164 172 160 146 161 157 140 94 71 111 91 323 60
251 193 217 206 317 57 98 346 254 222 201 194 191 186 180 177 176 176 173 175 171 173 174 173 175 173 175 166 145 124 84 59 59 126 183 201 176 180 157 150 159 161 154 174 219 136 136 159 335
242 211 190 173 111 293 119 208 265 220 212 200 196 189 183 181 176 175 175 177 180 181 174 169 172 171 173 163 156 157 162 175 202 190 189 202 190 181 169 157 163 167 162 175 222 156 150 136 279
196 171 145 148 123 63 30 113 277 219 213 212 198 192 188 180 178 179 181 181 181 177 171 169 168 170 171 163 164 164 168 186 188 164 170 197 215 208 190 168 167 177 173 178 182 136 137 149 169
128 64 43 50 70 44 257 152 274 229 211 205 199 189 184 180 181 180 177 170 172 171 169 168 167 174 175 169 169 170 174 180 179 190 189 201 220 235 213 182 184 191 187 189 193 184 167 180 183
84 83 36 11 19 270 278 151 250 243 216 197 191 185 179 178 178 177 173 172 173 171 172 173 172 179 182 178 179 181 181 181 191 197 194 191 206 223 223 201 191 199 205 198 190 193 194 196 199
183 131 147 175 215 278 344 244 261 262 209 175 163 169 167 170 175 178 177 173 172 174 173 171 177 184 185 186 192 191 186 186 197 198 189 195 209 215 211 196 193 198 201 203 184 201 216 206 222
153 163 157 131 122 20 288 285 308 350 31 77 108 142 165 169 169 171 170 168 169 173 177 176 174 179 185 187 187 190 188 187 192 193 186 192 206 202 192 192 196 200 193 191 177 196 226 213 225
144 147 92 102 134 231 290 284 259 296 314 2 82 128 169 159 159 166 173 173 172 173 173 173 177 183 186 185 188 189 190 190 188 184 189 190 195 196 183 189 196 199 192 188 179 203 222 196 240
74 83 103 116 147 152 207 269 229 207 198 188 171 169 152 146 160 168 174 173 169 168 168 173 178 180 184 185 185 185 189 190 187 191 197 192 194 195 197 194 188 189 193 191 180 209 213 215 248
145 153 138 143 208 156 155 263 264 183 169 153 164 150 149 131 133 150 159 161 162 164 167 175 179 183 189 184 179 187 185 182 190 203 203 193 196 204 197 186 186 198 201 201 195 208 213 213 230